Regional Weather Roundup
Issued by NWS

Home | Current Version | Previous Version | Graphics & Text | Print | Product List | Glossary On
Versions: 1 2 3 4 5 6 7 8 9 10 11 12 13 14 15 16 17 18 19 20 21 22 23 24 25 26 27 28 29 30 31 32 33 34 35 36 37 38 39 40 41 42 43 44 45 46 47 48 49 50
000
ASUS43 KOAX 262202
RWRNE

WEATHER ROUNDUP FOR NEBRASKA
NATIONAL WEATHER SERVICE OMAHA NE
500 PM CDT THU MAR 26 2015

NOTES: SATELLITE DATA IS BEING USED TO AUGMENT CLOUD COVER ABOVE
       12000 FEET.
       "FAIR" INDICATES FEW OR NO CLOUDS BELOW 12,000 FEET WITH NO
       SIGNIFICANT WEATHER AND/OR OBSTRUCTIONS TO VISIBILITY.

  * THESE STATIONS DO NOT REPORT WEATHER SUCH AS RAIN...SNOW OR FOG.

NEZ001>004-019>022-054>056-262300-
NEBRASKA PANHANDLE

CITY           SKY/WX    TMP DP  RH WIND       PRES   REMARKS
SCOTTSBLUFF    CLOUDY    54  33  45 N24G35    30.11S
ALLIANCE       PTSUNNY   53  32  44 NW24G32   30.07S
CHADRON        CLOUDY    50  34  54 N13       30.10R
SIDNEY         PTSUNNY   54  29  38 N30G40    30.11R
$$

NEZ057>060-069>072-079>082-262300-
SOUTHWEST NEBRASKA

CITY           SKY/WX    TMP DP  RH WIND       PRES   REMARKS
NORTH PLATTE   CLOUDY    57  26  30 NW22G29   30.03S
IMPERIAL         N/A     58  29  33 NW29G37   30.07R
MCCOOK         CLOUDY    62  24  23 NW26G37   30.01F
$$

NEZ005>010-023>029-035>040-094-262300-
NORTH CENTRAL NEBRASKA

CITY           SKY/WX    TMP DP  RH WIND       PRES   REMARKS
VALENTINE      CLOUDY    40  29  64 NE14      30.14R WCI  32
BROKEN BOW     LGT RAIN  51  35  54 N17G30    30.01R
ORD            CLOUDY    51  26  37 NE7       30.03R
$$

NEZ041-046>049-061>064-073>077-083>087-262300-
SOUTH CENTRAL NEBRASKA

CITY           SKY/WX    TMP DP  RH WIND       PRES   REMARKS
GRAND ISLAND   PTSUNNY   48  29  47 E12       30.03F
HASTINGS       PTSUNNY   54  30  40 SW3       30.00F
KEARNEY *      CLOUDY    57  28  33 W17G23    29.98F
$$

NEZ011>018-030>034-042>045-262300-
NORTHEAST NEBRASKA

CITY           SKY/WX    TMP DP  RH WIND       PRES   REMARKS
NORFOLK        FLURRIES  35  33  92 N5        30.13S WCI  31
COLUMBUS *     CLOUDY    34  27  75 NE10      30.15R VSB 1   WCI  26
TEKAMAH        CLOUDY    43  24  47 NW16G29   30.13R
$$

NEZ050>053-065>068-078-088>093-262300-
SOUTHEAST NEBRASKA

CITY           SKY/WX    TMP DP  RH WIND       PRES   REMARKS
LINCOLN        LGT RAIN  44  33  65 N17       30.11R
OMAHA EPPLEY   CLOUDY    44  26  49 N15G21    30.11R
FALLS CITY     MOSUNNY   51  27  39 MISG      30.07F
$$

NEZ044-045-051>053-067-262300-
OMAHA AREA

CITY           SKY/WX    TMP DP  RH WIND       PRES   REMARKS
OMAHA EPPLEY   CLOUDY    44  26  49 N15G21    30.11R
OFFUTT AFB     CLOUDY    46  22  39 NE12      30.09R
$$


USA.gov is the U.S. government's official web portal to all federal, state and local government web resources and services.